www.pogodaiklimat.ru

Погода и климат >> Архив погоды >> Индонезия >> Тауна


ПОГОДА в Тауне

  • Прогноз погоды в Тауне
  • Монитор погоды в Тауне

АРХИВ ПОГОДЫ в Тауне

Время (UTC), дата Ветер
(напр.,м/с)
 
Видим.   Явления Облачность Т
(С)
Тd
(С)
f
(%)
Тe
(С)
Тes
(С)
Комфортность P
(гПа)
Po
(гПа)
Тmin
(С)
Tmax
(С)
R
(мм)
R24
(мм)
S
(см)
15 11.04 штиль 0 9000 м 3/1 570 м
[Cu hum Ac trans Ci fib]
+25.6 +24.7 95 +36 +36 очень
душно
1010.3 1009.0
18 11.04 штиль 0 9000 м 3/1 570 м
[Cu hum Ac trans Ci fib]
+25.8 +24.9 95 +37 +37 очень
душно
1009.2 1007.9
21 11.04 штиль 0 9000 м 4/3 570 м
[Cu med, cong Ac trans Ci fib]
+25.2 +24.4 95 +35 +35 очень
душно
1009.7 1008.4
00 12.04 СВ 2 9000 м 5/4 540 м
[Cu med, cong Ci sp]
+29.6 +25.4 78 +43 +47 опасность
перегрева
1011.6 1010.3 +25.4
03 12.04 В 4 9000 м 4/3 570 м
[Cu med, cong Ci sp]
+29.8 +25.2 76 +43 +53 опасность
перегрева
1011.0 1009.7
06 12.04 СВ 2 9000 м 4/4 540 м
[Cu med, cong]
+29.2 +24.9 78 +42 +51 опасность
перегрева
1009.4 1008.1
09 12.04 В 2 9000 м 1/1 570 м
[Cu hum Ac trans Ci fib]
+29.2 +24.6 76 +41 +42 опасность
перегрева
1008.9 1007.6
12 12.04 штиль 0 9000 м 4/3 570 м
[Cu med, cong Ac trans Ci fib]
+26.4 +25.0 92 +38 +38 очень
душно
1010.6 1009.3 +31.0
15 12.04 штиль 0 8000 м 8/5 570 м
[Cu med, cong Ac trans Ci fib]
+26.4 +25.6 95 +39 +39 очень
душно
1011.4 1010.1
18 12.04 штиль 0 8000 м 5/3 570 м
[Cu med, cong Ac trans Ci fib]
+26.4 +25.3 94 +38 +38 очень
душно
1010.3 1009.0
21 12.04 штиль 0 8000 м 6/4 570 м
[Cu med, cong Ac trans Ci sp]
+26.1 +25.2 95 +38 +38 очень
душно
1010.5 1009.2
00 13.04 СВ 2 8000 м в посл. час дождь 9/8 540 м
[Cu med, cong Ac trans Ci fib]
+29.3 +25.0 78 +42 +43 опасность
перегрева
1012.5 1011.2 +25.8 0.5
03 13.04 штиль 0 50 км ?/? +30.2 +24.6 72 +43 +43 опасность
перегрева
1011.8 1010.5
06 13.04 С 3 9000 м 4/3 570 м
[Cu med, cong Ac trans]
+30.0 +24.1 71 +42 +49 опасность
перегрева
1009.6 1008.3
09 13.04 штиль 0 9000 м 5/5 570 м
[Cu med, cong Ac trans]
+28.4 +24.6 80 +40 +41 очень
душно
1009.9 1008.6
12 13.04 штиль 0 9000 м 4/3 540 м
[Cu hum Ci sp]
+27.4 +23.6 80 +37 +37 очень
душно
1011.6 1010.3 +30.6
15 13.04 штиль 0 8000 м 5/4 540 м
[Cu hum Ci sp]
+27.4 +23.9 81 +38 +38 очень
душно
1011.3 1009.9
18 13.04 штиль 0 9000 м 3/3 540 м
[Cu hum Ci fib]
+26.8 +22.9 79 +36 +36 очень
душно
1010.0 1008.7
21 13.04 С 2 9000 м 4/3 540 м
[Cu med, cong Ci sp]
+26.8 +22.9 79 +36 +36 очень
душно
1010.8 1009.4
00 14.04 В 4 9000 м 4/3 570 м
[Cu med, cong Ac trans Ci fib]
+29.7 +23.0 67 +40 +43 очень
душно
1013.0 1011.7 +25.8
03 14.04 СВ 4 9000 м 4/3 570 м
[Cu med, cong Ac trans Ci sp]
+29.5 +0.6 15 +27 +36 жарко 1012.1 1010.8
06 14.04 С 3 9000 м 3/1 570 м
[Cu hum Ac trans Ci fib]
+30.0 +23.6 69 +41 +50 опасность
перегрева
1009.4 1008.1
09 14.04 штиль 0 9000 м 1/1 600 м
[Cu hum Ci fib]
+28.2 +22.9 73 +38 +38 очень
душно
1009.4 1008.7
12 14.04 штиль 0 9000 м 3/3 600 м
[Cu hum Ci fib]
+25.6 +23.8 90 +35 +35 очень
душно
1010.9 1009.6 +30.4
15 14.04 штиль 0 9000 м 3/3 600 м
[Cu hum Ci fib]
+24.4 +23.5 95 +33 +33 очень
душно
1011.3 1009.9
18 14.04 штиль 0 9000 м 3/3 600 м
[Cu hum Ci fib]
+23.4 +22.8 96 +33 +33 очень
душно
1009.7 1008.3
21 14.04 штиль 0 9000 м 4/3 600 м
[Cu hum Ci sp]
+23.2 +22.6 96 +32 +32 очень
душно
1010.0 1008.7
00 15.04 штиль 0 9000 м 5/5 570 м
[Cu med, cong Ci fib]
+28.4 +23.7 76 +39 +44 очень
душно
1012.2 1010.8 +23.0
03 15.04 С 2 9000 м 6/5 570 м
[Cu med, cong Ac trans Ci fib]
+29.0 +23.8 74 +40 +49 очень
душно
1011.6 1010.3
06 15.04 С 2 9000 м 1/1 570 м
[Cu hum]
+29.8 +24.0 71 +41 +54 опасность
перегрева
1009.9 1008.6
09 15.04 СЗ 2 9000 м 5/1 570 м
[Cu hum Ac trans Ci fib]
+28.4 +24.3 78 +40 +40 очень
душно
1009.7 1008.4
12 15.04 штиль 0 9000 м 3/3 570 м
[Cu hum Ci fib]
+26.4 +25.2 93 +38 +38 очень
душно
1011.5 1010.2 +30.4
15 15.04 штиль 0 9000 м 3/3 570 м
[Cu hum Ci fib]
+26.6 +24.2 87 +37 +37 очень
душно
1012.1 1010.7
18 15.04 штиль 0 8000 м 6/4 570 м
[Cu med, cong Ac trans Ci sp]
+26.0 +24.5 91 +36 +36 очень
душно
1010.2 1008.8
21 15.04 штиль 0 9000 м 4/3 570 м
[Cu hum Ac trans Ci fib]
+25.2 +24.0 93 +35 +35 очень
душно
1009.9 1008.5
00 16.04 СВ 4 8000 м 8/6 540 м
[Cu med, cong Ac trans Ci fib]
+28.8 +23.3 72 +39 +40 очень
душно
1012.3 1010.9 +25.0
03 16.04 В 3 9000 м 3/3 570 м
[Cu med, cong]
+30.0 +23.9 70 +41 +53 опасность
перегрева
1011.9 1010.6
06 16.04 СВ 3 8000 м 4/4 570 м
[Cu med, cong]
+29.6 +23.5 70 +40 +47 очень
душно
1009.6 1008.3
09 16.04 В 3 9000 м 3/3 570 м
[Cu hum Ac trans]
+29.0 +23.5 72 +39 +40 очень
душно
1009.7 1008.3
12 16.04 штиль 0 9000 м 4/3 570 м
[Cu hum Ac trans Ci sp]
+26.2 +23.7 86 +36 +36 очень
душно
1011.3 1010.0 +30.4
15 16.04 штиль 0 9000 м 6/4 570 м
[Cu med, cong Ac trans Ci sp]
+27.4 +24.1 82 +38 +38 очень
душно
1011.9 1010.6
18 16.04 штиль 0 9000 м 6/4 570 м
[Cu med, cong Ac trans Ci sp]
+25.8 +24.2 91 +36 +36 очень
душно
1009.5 1008.2
21 16.04 штиль 0 9000 м 6/5 570 м
[Cu med, cong Ac trans Ci fib]
+24.8 +23.9 95 +34 +34 очень
душно
1009.8 1008.5
00 17.04 В 2 9000 м 5/4 570 м
[Cu med, cong Ci sp]
+29.3 +24.2 74 +41 +45 опасность
перегрева
1011.8 1010.5 +24.9
03 17.04 В 3 9000 м 5/4 540 м
[Cu med, cong Ci sp]
+29.6 +24.4 74 +42 +51 опасность
перегрева
1011.8 1010.5
06 17.04 штиль 0 8000 м 6/4 540 м
[Cu med, cong As op Ci sp]
+29.2 +24.6 76 +41 +51 опасность
перегрева
1009.7 1008.4
09 17.04 В 2 8000 м 9/5 540 м
[Cu med, cong As op Ci sp]
+28.2 +24.1 78 +39 +39 очень
душно
1009.8 1008.5
12 17.04 штиль 0 9000 м 4/4 570 м
[Cu med, cong Ci fib]
+27.6 +24.6 84 +39 +39 очень
душно
1010.9 1009.6 +31.0
15 17.04 штиль 0 9000 м 3/1 570 м
[Cu hum Ac trans Ci fib]
+25.6 +24.4 93 +36 +36 очень
душно
1011.3 1009.9
18 17.04 штиль 0 9000 м 3/1 570 м
[Cu hum Ac trans Ci fib]
+24.8 +24.0 95 +34 +34 очень
душно
1009.8 1008.5
21 17.04 штиль 0 9000 м 3/1 570 м
[Cu hum Ac trans Ci fib]
+24.8 +23.6 93 +34 +34 очень
душно
1010.4 1009.1
00 18.04 штиль 0 9000 м 5/1 570 м
[Cu hum Ac trans]
+28.8 +23.3 72 +39 +45 очень
душно
1012.7 1011.4 +23.8
03 18.04 В 3 9000 м 6/1 570 м
[Cu med, cong Ac trans]
+29.6 +24.2 73 +41 +52 опасность
перегрева
1012.4 1011.1
06 18.04 СВ 2 9000 м 3/3 570 м
[Cu hum]
+30.4 +24.3 70 +42 +53 опасность
перегрева
1009.5 1008.2
09 18.04 В 2 9000 м 4/4 570 м
[Cu med, cong Ci fib]
+29.0 +24.4 76 +41 +41 опасность
перегрева
1009.3 1008.0

 

Местоположение метеостанции Тауна (Индонезия): широта -3.58 долгота 125.47 высота над уровнем моря 38 м.

В архиве по умолчанию представлена погода в Тауне за последнюю неделю. Архивные данные за месяц целиком и за предыдущие месяцы, начиная с января 2011 года, Вы можете получить, выбрав интересующий диапазон дат из раскрывающегося списка и нажав кнопку "Ввод!".


*Определитесь, кто Вы:
робот инопланетянин человек

Внимание! Время в таблицах - всемирное. Для получения местного времени необходимо прибавить поправку, которая равна 8 ч.

Смотрите также архив погоды в соседних городах и на ближайших метеорологических станциях:

Погода на Санане (Индонезия) (177 км)
Погода в Намлеа (Индонезия) (182 км)
Погода в Амбоне (Индонезия) (290 км)
Погода в Кендари (Индонезия) (342 км)
Погода в Амахаи (Индонезия) (379 км)
Погода в Бау-Бау (Индонезия) (380 км)
Погода в Лабухе (Индонезия) (398 км)
Погода в Лувуке (Индонезия) (422 км)
Погода в Колаке (Индонезия) (444 км)
Погода в Неира (Индонезия) (503 км)

Пояснения к столбцам:

Ветер - указаны скорость ветра в м/с - средняя за 10 мин, порывы в срок и между сроками (в фигурных скобках) и направление, откуда дует ветер: С - северный, СВ - северо-восточный, В - восточный, ЮВ - юго-восточный, Ю - южный, ЮЗ - юго-западный, З - западный, СЗ - северо-западный.
Видимость - горизонтальная дальность видимости в метрах или километрах. При видимости от 1 до 10 км при отсутствии осадков обычно наблюдается дымка, при ухудшении видимости до 1 км и менее - туман. В сухую погоду видимость может ухудшаться дымом, пылью или мглою.
Явления - указаны атмосферные явления, наблюдавшиеся в срок или в последний час перед сроком; фигурными скобками обозначены явления, наблюдавшиеся между сроками (за 1-3 часа до срока); квадратными скобками обозначены град или гололедные отложения с указанием их диаметра в мм.
Облачность - указаны через наклонную черту общая и нижняя облачность в баллах и высота нижней границы облаков в метрах; квадратными скобками обозначены формы облаков: Ci - перистые, Cs - перисто-слоистые, Cc - перисто-кучевые, Ac - высококучевые, As - высокослоистые, Sc - слоисто-кучевые, Ns - слоисто-дождевые, Cu - кучевые, Cb - кучево-дождевые. Подробнее классификацию облаков см. в Атласе облаков (PDF).
T - Температура воздуха - температура, измеренная на высоте 2 м над землей.
Td - Температура точки росы - температура, при понижении до которой содержащийся в воздухе водяной пар достигнет насыщения.
f - Относительная влажность воздуха - влажноcть воздуха, измеренная на высоте 2 м над землей.
Te - Эффективная температура - температура, которую ощущает одетый по сезону человек в тени. Характеристика душности погоды. При расчете учитывается влияние влажности воздуха и скорости ветра на теплоощущения человека.
Tes - Эффективная температура на солнце - температура, которую ощущает человек, с поправкой на солнечный нагрев. Характеристика знойности погоды. Зависит от высоты солнца над горизонтом, облачности и скорости ветра. Ночью, в пасмурную погоду, а также при ветре 12 м/с и более поправка равна нулю.
P - Атмосферное давление - приведенное к уровню моря атмосферное давление.
Po - Атмосферное давление - измеренное на уровне метеостанции атмосферное давление.
Tmin - Минимальная температура - минимум температуры воздуха на высоте 2 м над землей.
Tmax - Максимальная температура - максимум температуры воздуха на высоте 2 м над землей.
R - Количество осадков - Количество выпавших осадков за период времени, мм. При наведении курсора мыши на число - период времени, за который выпало указанное количество осадков.
R24 - Количество осадков - Количество выпавших осадков за 24 часа, мм.
S - Снежный покров - Высота снежного покрова, см. При наведении курсора мыши на число - состояние снежного покрова и степень покрытия местности в баллах.